Location: Canet
(43.3261°N, 5.3723°E)
Time: 18:54:17
(UTC+00:00)

Helios 1A Rocket - Pass Details

Date: 24 January 2021
Orbit: 562 x 586 km, 98.3° (Epoch: 07 March)

Event Time Altitude Azimuth Distance (km) Brightness Sun altitude
Rises 18:46:21 0° 175° (S) 2,796 6.4 -22.9°
Reaches altitude 10° 18:48:32 10° 180° (S) 1,902 5.6 -23.3°
Maximum altitude 18:52:35 57° 259° (WSW) 696 3.5 -24.0°
Drops below altitude 10° 18:56:41 10° 338° (NNW) 1,919 5.8 -24.8°
Sets 18:58:54 0° 343° (NNW) 2,824 6.6 -25.2°
